EW9213 Weather Reports


Display with metric or nautical units.
time (UTC)temp
F
wind
direction
speed
MPH
gust
MPH
rain 1hr
in
rain 24hr
in
rain mn
in
humidity
%
barometer
mb
20260906204506 76 166 3.0 11.0 0.00 0.09 0.09 76 1018.9
20260906203014 75 153 6.0 11.0 0.00 0.09 0.09 77 1019.1
20260906201505 71 209 2.0 7.0 0.00 0.09 0.09 85 1019.2
20260906200011 68 204 4.0 11.0 0.00 0.09 0.09 91 1019.4
20260906194504 68 190 3.0 7.0 0.01 0.09 0.09 93 1020.0
20260906193004 67 188 6.0 16.0 0.01 0.09 0.09 93 1020.6
20260906191502 69 162 7.0 17.0 0.01 0.09 0.09 87 1021.2
20260906190003 69 207 14.0 22.0 0.08 0.09 0.09 89 1021.1
20260906184601 67 180 13.0 25.0 0.08 0.08 0.08 88 1021.7
20260906183109 67 262 0.0 6.0 0.08 0.08 0.08 88 1020.8
20260906181555 66 11 2.0 25.0 0.08 0.08 0.08 90 1019.6
20260906180111 70 319 1.0 14.0 0.01 0.01 0.01 92 1020.6
20260906174551 77 357 7.0 18.0 0.00 0.00 0.00 81 1020.4
20260906173050 80 236 0.0 5.0 0.00 0.00 0.00 76 1019.4
20260906171549 80 126 5.0 11.0 0.00 0.00 0.00 76 1019.5
20260906170112 80 101 2.0 9.0 0.00 0.00 0.00 77 1020.0
20260906164543 79 143 4.0 7.0 0.00 0.00 0.00 82 1019.6
20260906163043 78 105 5.0 8.0 0.00 0.00 0.00 82 1019.5
20260906161539 78 93 1.0 5.0 0.00 0.00 0.00 82 1019.1
20260906160037 77 108 3.0 4.0 0.00 0.00 0.00 84 1018.7
20260906154535 76 103 1.0 3.0 0.00 0.00 0.00 85 1018.5
20260906153038 75 42 0.0 2.0 0.00 0.00 0.00 88 1018.2
20260906151533 73 6 0.0 5.0 0.00 0.00 0.00 89 1018.3
20260906150033 72 330 0.0 1.0 0.00 0.00 0.00 89 1018.5
20260906144536 73 323 0.0 1.0 0.00 0.00 0.00 88 1018.7
20260906143034 74 294 0.0 2.0 0.00 0.00 0.00 87 1018.7
20260906141536 74 6 0.0 4.0 0.00 0.00 0.00 87 1018.7
20260906140036 74 293 7.0 12.0 0.00 0.00 0.00 87 1018.8
20260906134529 73 257 9.0 15.0 0.00 0.00 0.00 89 1018.7
20260906133028 72 210 10.0 16.0 0.00 0.00 0.00 89 1018.3
20260906131527 74 225 9.0 17.0 0.00 0.00 0.00 87 1018.3
20260906130029 73 205 7.0 14.0 0.00 0.00 0.00 87 1018.4
20260906124537 74 215 13.0 19.0 0.00 0.00 0.00 85 1018.5
20260906123043 74 220 14.0 25.0 0.00 0.00 0.00 85 1018.5
20260906121520 74 233 14.0 23.0 0.00 0.00 0.00 86 1018.8
20260906120016 70 210 19.0 26.0 0.00 0.00 0.00 90 1019.2
20260906114515 70 220 16.0 22.0 0.00 0.00 0.00 91 1018.9
20260906113016 69 209 15.0 20.0 0.00 0.00 0.00 91 1018.7
20260906111523 70 192 17.0 23.0 0.00 0.00 0.00 90 1018.7
20260906110010 69 192 14.0 21.0 0.00 0.00 0.00 90 1018.6
20260906104508 69 184 14.0 19.0 0.00 0.00 0.00 90 1018.9
20260906103007 69 179 12.0 19.0 0.00 0.00 0.00 90 1018.8
20260906101507 69 188 9.0 15.0 0.00 0.00 0.00 91 1018.9
20260906100008 68 181 6.0 11.0 0.00 0.00 0.00 91 1019.0
20260906094504 68 167 9.0 12.0 0.00 0.00 0.00 92 1018.9
20260906093003 68 150 6.0 10.0 0.00 0.00 0.00 92 1018.9
20260906091501 67 137 4.0 5.0 0.00 0.00 0.00 93 1018.9
20260906090059 68 140 4.0 6.0 0.00 0.00 0.00 92 1018.9
20260906084559 68 150 1.0 3.0 0.00 0.00 0.00 92 1018.9
20260906083057 68 169 2.0 6.0 0.00 0.00 0.00 92 1018.7
20260906081558 68 159 6.0 11.0 0.00 0.00 0.00 91 1018.6
20260906080055 69 141 4.0 7.0 0.00 0.00 0.00 91 1018.5
20260906074554 68 149 1.0 3.0 0.00 0.00 0.00 91 1018.5
20260906073054 69 127 3.0 7.0 0.00 0.00 0.00 91 1018.5
20260906071551 68 134 3.0 6.0 0.00 0.00 0.00 92 1018.5
20260906070049 69 157 6.0 14.0 0.00 0.00 0.00 90 1018.4
20260906064547 69 151 10.0 15.0 0.00 0.00 0.00 90 1018.7
20260906063045 70 150 13.0 18.0 0.00 0.00 0.00 88 1018.9
20260906061542 69 155 13.0 16.0 0.00 0.00 0.00 89 1019.0
20260906060038 70 125 4.0 12.0 0.00 0.00 0.00 88 1018.8
20260906054541 71 157 7.0 11.0 0.00 0.00 0.00 87 1018.7
20260906053034 71 140 7.0 10.0 0.00 0.00 0.00 86 1018.8
20260906051530 70 142 5.0 8.0 0.00 0.00 0.00 87 1018.9
20260906050028 70 117 0.0 1.0 0.00 0.00 0.00 87 1018.8
20260906044528 70 84 0.0 1.0 0.00 0.00 0.00 87 1018.7
20260906043031 70 64 0.0 2.0 0.00 0.00 0.00 86 1018.6
20260906041527 70 99 0.0 1.0 0.00 0.00 0.00 86 1018.6
20260906040026 70 122 0.0 0.0 0.00 0.00 0.00 87 1018.5
20260906034526 71 87 0.0 5.0 0.00 0.00 0.00 84 1018.4
20260906033027 73 148 5.0 10.0 0.00 0.00 0.00 81 1018.2
20260906031525 74 174 8.0 11.0 0.00 0.00 0.00 81 1017.8
20260906030025 76 167 7.0 10.0 0.00 0.00 0.00 78 1017.6
20260906024524 77 176 6.0 11.0 0.00 0.00 0.00 76 1017.6
20260906023027 77 169 8.0 13.0 0.00 0.00 0.00 76 1017.5
20260906021522 77 189 8.0 14.0 0.00 0.00 0.00 75 1017.4
20260906020023 77 181 11.0 16.0 0.00 0.00 0.00 74 1017.3
20260906014527 77 181 11.0 15.0 0.00 0.00 0.00 75 1017.2
20260906013030 76 188 11.0 15.0 0.00 0.00 0.00 74 1017.1
20260906011521 76 180 11.0 16.0 0.00 0.00 0.00 73 1017.0
20260906010021 77 157 15.0 19.0 0.00 0.00 0.00 72 1016.9
20260906004520 78 160 13.0 17.0 0.00 0.00 0.00 66 1016.7
20260906003020 78 158 8.0 14.0 0.00 0.00 0.00 67 1016.7
20260906001520 78 174 8.0 13.0 0.00 0.00 0.00 67 1016.8
20260906000036 78 150 7.0 17.0 0.00 0.00 0.00 71 1017.1
20260905234518 77 173 9.0 22.0 0.00 0.00 0.00 73 1017.5
20260905233017 80 203 17.0 31.0 0.00 0.00 0.00 70 1017.9
20260905231516 85 198 17.0 26.0 0.00 0.00 0.00 57 1017.7
20260905230015 86 199 11.0 20.0 0.00 0.00 0.00 56 1017.0
20260905224514 87 139 12.0 20.0 0.00 0.00 0.00 53 1016.7
20260905223013 88 159 14.0 18.0 0.00 0.00 0.00 51 1016.9
20260905221512 89 141 11.0 18.0 0.00 0.00 0.00 49 1015.9
20260905220012 90 136 10.0 17.0 0.00 0.00 0.00 47 1015.6
20260905214508 90 194 11.0 19.0 0.00 0.00 0.00 45 1016.1
20260905213005 90 119 16.0 23.0 0.00 0.00 0.00 45 1016.5
20260905211503 90 162 9.0 13.0 0.00 0.00 0.00 45 1016.5
20260905210000 90 200 7.0 14.0 0.00 0.00 0.00 45 1016.3